Spokane, WA

4:58 PM PST on December 13, 2017 (GMT -0800)
Spokane International

Weather History for KGEG - December, 2014

Change the Weather History Date:

Wednesday, December 24, 2014

  Actual Average Record
Temperature  
Mean Temperature 35 °F 26 °F  
Max Temperature 41 °F 31 °F 55 °F (1919)
Min Temperature 29 °F 22 °F -12 °F (1884)
Degree Days  
Heating Degree Days 30 39  
Month to date heating degree days 695 901  
Since 1 July heating degree days 2064 2568  
Cooling Degree Days 0 0  
Month to date cooling degree days 0 0  
Year to date cooling degree days 654 450  
Moisture  
Dew Point 34 °F    
Average Humidity 91    
Maximum Humidity 100    
Minimum Humidity 82    
Precipitation  
Precipitation 0.27 in 0.07 in 0.62 in (1936)
Month to date precipitation 1.76 1.84  
Year to date precipitation 14.78 16.10  
Snow  
Snow 0.60 in 0.50 in 6.10 in (2008)
Month to date snowfall 1.2 10.9  
Since 1 July snowfall 1.7 18.4  
Snow Depth 0.00 in    
Sea Level Pressure  
Sea Level Pressure 29.75 in    
Wind  
Wind Speed 8 mph (WNW)    
Max Wind Speed 18 mph    
Max Gust Speed 22 mph    
Visibility 7 miles    
Events Rain , Snow    
T = Trace of Precipitation, MM = Missing Value Source: NWS Daily Summary

Daily Weather History Graph

Daily Weather History Graph

Search for Another Location

Airport or City:

Trip Planner

Search our weather history database for the weather conditions in past years. The results will help you decide how hot, cold, wet, or windy it might be!

Date:

Astronomy

Dec. 24, 2014 Rise Set
Actual Time 7:36 AM PST 4:02 PM PST
Civil Twilight 7:00 AM PST 4:38 PM PST
Nautical Twilight 6:21 AM PST 5:18 PM PST
Astronomical Twilight 5:43 AM PST 5:55 PM PST
Moon 9:19 AM PST (12/24) 7:45 PM PST (12/24)
Length of Visible Light 9h 37m
Length of Day
8h 25m
Waxing Crescent, 10% of the Moon is Illuminated
Dec 24
Waxing Crescent
Dec 28
First Quarter
Jan 4
Full
Jan 13
Last Quarter
Jan 20
New

Hourly Weather History & Observations

Time (PST) Temp. Windchill Dew Point Humidity Pressure Visibility Wind Dir Wind Speed Gust Speed Precip Events Conditions
12:09 AM 39.9 °F 33.4 °F 39.0 °F 97% 29.85 in 3.0 mi South 10.4 mph - 0.01 in   Light Drizzle
12:53 AM 39.9 °F 33.9 °F 39.0 °F 97% 29.87 in 7.0 mi South 9.2 mph - 0.01 in   Light Drizzle
1:53 AM 41.0 °F 35.2 °F 39.0 °F 93% 29.85 in 10.0 mi SSW 9.2 mph - 0.00 in   Overcast
2:06 AM 41.0 °F 35.2 °F 39.0 °F 93% 29.81 in 10.0 mi SW 9.2 mph - N/A   Overcast
2:47 AM 41.0 °F 35.8 °F 39.2 °F 93% 29.79 in 2.0 mi SW 8.1 mph - 0.02 in Rain Light Rain
2:53 AM 39.9 °F 35.1 °F 39.9 °F 100% 29.82 in 2.0 mi WSW 6.9 mph - 0.02 in Rain Light Rain
3:53 AM 39.9 °F 33.9 °F 39.0 °F 97% 29.80 in 1.0 mi NW 9.2 mph - 0.06 in Rain Light Rain
4:30 AM 36.0 °F 28.0 °F 34.0 °F 93% 29.76 in 7.0 mi North 11.5 mph - 0.04 in Rain Light Rain
4:53 AM 35.1 °F 26.4 °F 34.0 °F 96% 29.79 in 9.0 mi North 12.7 mph - 0.06 in Rain , Snow Light Rain
5:21 AM 34.0 °F 26.6 °F 33.1 °F 96% 29.75 in 2.0 mi North 9.2 mph - 0.02 in Snow Light Snow
5:32 AM 33.1 °F 26.9 °F 33.1 °F 100% 29.75 in 2.0 mi NNE 6.9 mph - 0.02 in Snow Light Snow
5:53 AM 33.1 °F 26.9 °F 32.0 °F 96% 29.80 in 2.0 mi North 6.9 mph - 0.04 in Snow Light Snow
6:53 AM 33.1 °F 27.7 °F 32.0 °F 96% 29.78 in 1.5 mi NE 5.8 mph - 0.04 in Snow Light Snow
7:14 AM 33.1 °F 28.7 °F 32.0 °F 96% 29.72 in 1.5 mi ENE 4.6 mph - 0.02 in Snow Light Snow
7:37 AM 33.1 °F 30.0 °F 32.0 °F 96% 29.71 in 1.5 mi ENE 3.5 mph - 0.03 in Snow Light Snow
7:53 AM 33.1 °F - 32.0 °F 96% 29.75 in 4.0 mi Calm Calm - 0.04 in Snow Light Snow
8:08 AM 33.1 °F 28.7 °F 32.0 °F 96% 29.70 in 8.0 mi SE 4.6 mph - 0.00 in   Overcast
8:53 AM 33.1 °F 28.7 °F 32.0 °F 96% 29.73 in 10.0 mi SSE 4.6 mph - 0.00 in   Overcast
9:53 AM 34.0 °F 29.8 °F 32.0 °F 92% 29.73 in 10.0 mi NW 4.6 mph - N/A   Overcast
10:53 AM 34.0 °F 28.0 °F 33.1 °F 96% 29.71 in 10.0 mi WNW 6.9 mph - N/A   Overcast
11:23 AM 34.0 °F 25.0 °F 33.1 °F 96% 29.66 in 1.0 mi WNW 12.7 mph - N/A   Overcast
11:53 AM 35.1 °F 30.1 °F 34.0 °F 96% 29.68 in 1.0 mi WNW 5.8 mph - N/A   Mostly Cloudy
12:00 PM 35.1 °F 30.1 °F 34.0 °F 96% 29.65 in 10.0 mi WSW 5.8 mph - N/A   Mostly Cloudy
12:14 PM 36.0 °F 31.1 °F 35.1 °F 97% 29.64 in 10.0 mi West 5.8 mph - N/A   Mostly Cloudy
12:53 PM 37.0 °F 29.8 °F 34.0 °F 89% 29.66 in 10.0 mi WNW 10.4 mph - N/A   Overcast
1:47 PM 37.4 °F 28.9 °F 33.8 °F 87% 29.63 in 10.0 mi WNW 13.8 mph - N/A   Overcast
1:53 PM 37.9 °F 30.0 °F 35.1 °F 89% 29.66 in 10.0 mi WNW 12.7 mph - N/A   Overcast
2:53 PM 37.9 °F 30.9 °F 34.0 °F 86% 29.68 in 10.0 mi WNW 10.4 mph - N/A   Overcast
3:53 PM 37.0 °F 33.3 °F 34.0 °F 89% 29.70 in 10.0 mi WNW 4.6 mph - N/A   Overcast
4:38 PM 36.0 °F 29.6 °F 34.0 °F 93% 29.67 in 10.0 mi WNW 8.1 mph - N/A   Overcast
4:53 PM 36.0 °F 30.3 °F 33.1 °F 89% 29.72 in 10.0 mi West 6.9 mph - N/A   Overcast
5:53 PM 34.0 °F 26.0 °F 32.0 °F 92% 29.73 in 10.0 mi West 10.4 mph - N/A   Overcast
6:53 PM 35.1 °F 28.6 °F 32.0 °F 89% 29.74 in 10.0 mi West 8.1 mph - N/A   Overcast
7:53 PM 34.0 °F 28.0 °F 30.9 °F 89% 29.76 in 10.0 mi NW 6.9 mph - N/A   Scattered Clouds
8:53 PM 33.1 °F 26.1 °F 30.0 °F 89% 29.78 in 10.0 mi WNW 8.1 mph - N/A   Scattered Clouds
9:53 PM 33.1 °F 26.1 °F 28.9 °F 85% 29.80 in 10.0 mi NW 8.1 mph - N/A   Partly Cloudy
10:53 PM 33.1 °F 26.1 °F 28.0 °F 82% 29.83 in 10.0 mi NNW 8.1 mph - N/A   Clear
11:53 PM 30.9 °F 25.2 °F 27.0 °F 85% 29.86 in 10.0 mi NW 5.8 mph - N/A   Clear